Location: Excel
(51.3833°N, 110.5667°W)
Time: 13:21:21
(UTC+00:00)

Envisat - Pass Details

Date: 09 December 2021
Orbit: 764 x 766 km, 98.2° (Epoch: 28 January)

Event Time Altitude Azimuth Distance (km) Brightness Sun altitude
Rises 23:44:29 0° 178° (S) 3,221 6.7 -4.8°
Reaches altitude 10° 23:46:51 10° 183° (S) 2,300 6.0 -5.1°
Maximum altitude 23:51:48 53° 260° (W) 943 4.0 -5.7°
Drops below altitude 10° 23:56:47 10° 337° (NNW) 2,317 5.4 -6.4°
Sets 23:59:10 0° 343° (NNW) 3,248 6.1 -6.8°
